Simultaneous Nadir Overpasses (SNOs) Predictions

Prediction of SNOs between GOES-15 and METOP-B Satellite Orbit:

Table of predicted SNOs for the next 14.0 days since TLE Epoch: 7/6/2024
Index Date Time (GOES-15) GOES-15 Lat,Lon METOP-B Lat,Lon Distance(km) Time Diff (sec)
1 07/06/2024 05:06:25 -0.14, 61.15 -0.63, 63.30 244.62 80
2 07/07/2024 17:28:08 0.11, 61.20 -0.48, 58.69 286.68 80
3 07/08/2024 17:04:53 0.14, 61.19 0.71, 63.65 280.09 80
4 07/10/2024 05:26:27 -0.10, 61.14 0.38, 59.07 236.38 80
5 07/11/2024 05:03:11 -0.13, 61.14 -0.75, 64.04 330.01 80
6 07/12/2024 17:24:55 0.09, 61.19 -0.28, 59.42 201.53 80
7 07/13/2024 17:01:38 0.12, 61.19 0.86, 64.39 365.07 80
8 07/15/2024 05:23:13 -0.08, 61.14 0.22, 59.82 151.53 80
9 07/16/2024 04:59:56 -0.11, 61.15 -0.92, 64.79 414.28 80
10 07/17/2024 17:21:40 0.06, 61.22 -0.15, 60.17 118.56 80
11 07/18/2024 16:58:22 0.09, 61.22 0.94, 65.15 447.09 80
